This is the latest recevied weather packets stored in our database for station/object SP2WPY-13. If no packets are shown the sender has not sent any weather packets the latest 10 day(s).
| Time | Temp. | Humidity | Pressure | Rain* | Wind** | Luminosity | Snow |
|---|---|---|---|---|---|---|---|
| 1777618879 | 16.67° C | 45% | 1029.6 hPa | - | - | - | - |
| 1777618602 | 17.22° C | 43% | 1029.5 hPa | - | - | - | - |
| 1777618283 | 16.67° C | 46% | 1029.5 hPa | - | - | - | - |
| 1777617963 | 16.67° C | 45% | 1029.5 hPa | - | - | - | - |
| 1777617689 | 16.67° C | 45% | 1029.4 hPa | - | - | - | - |
| 1777617370 | 17.22° C | 43% | 1029.5 hPa | - | - | - | - |
| 1777617095 | 17.78° C | 42% | 1029.5 hPa | - | - | - | - |
| 1777616776 | 17.78° C | 43% | 1029.5 hPa | - | - | - | - |
| 1777616503 | 16.67° C | 48% | 1029.4 hPa | - | - | - | - |
| 1777616182 | 16.11° C | 46% | 1029.4 hPa | - | - | - | - |
| 1777615863 | 15.56° C | 46% | 1029.4 hPa | - | - | - | - |
| 1777615588 | 16.11° C | 47% | 1029.3 hPa | - | - | - | - |
| 1777615269 | 15° C | 47% | 1029.3 hPa | - | - | - | - |
| 1777614995 | 15° C | 48% | 1029.3 hPa | - | - | - | - |
| 1777614675 | 15° C | 48% | 1029.3 hPa | - | - | - | - |
| 1777614401 | 15° C | 48% | 1029.4 hPa | - | - | - | - |
| 1777614081 | 14.44° C | 49% | 1029.4 hPa | - | - | - | - |
| 1777613762 | 14.44° C | 50% | 1029.3 hPa | - | - | - | - |
| 1777613488 | 14.44° C | 49% | 1029.3 hPa | - | - | - | - |
| 1777613168 | 14.44° C | 51% | 1029.3 hPa | - | - | - | - |
| 1777612894 | 14.44° C | 55% | 1029.3 hPa | - | - | - | - |
| 1777612574 | 13.89° C | 56% | 1029.3 hPa | - | - | - | - |
| 1777612301 | 13.33° C | 56% | 1029.3 hPa | - | - | - | - |
| 1777611980 | 12.78° C | 61% | 1029.4 hPa | - | - | - | - |
| 1777611661 | 12.22° C | 64% | 1029.4 hPa | - | - | - | - |
* Rain since midnight (hover to see other rain measurements)
** Current wind speed in m/s (hover to see current wind gust speed)